Location: Amanico Ergina Village
(37.7824°N, 122.4366°W)
Time: 08:24:20
(UTC+00:00)

H-2A R/B - Pass Details

Date: 29 October 2020
Orbit: 577 x 656 km, 98.5° (Epoch: 02 December)

Event Time Altitude Azimuth Distance (km) Brightness Sun altitude
Rises 13:20:31 0° 206° (SSW) 2,951 5.3 -14.8°
Reaches altitude 10° 13:23:31 10° 227° (SW) 2,036 4.3 -14.2°
Enters shadow 13:23:40 11° 229° (SW) 1,998 4.3 -14.2°
